Rochester/St. Mary\'s Hospita, MN

10:57 AM CST on November 12, 2019 (GMT -0600)
Rochester/St. Mary\'s Hospita

Weather History for K9MN - October, 2019

Change the Weather History Date:

Tuesday, October 22, 2019

  Actual Average (KRST) Record (KRST)
Temperature  
Mean Temperature 42 °F -  
Max Temperature 45 °F 56 °F 80 °F (1992)
Min Temperature 39 °F 35 °F 16 °F (1930)
Degree Days  
Heating Degree Days 23    
Moisture  
Dew Point 36 °F    
Average Humidity 79    
Maximum Humidity 100    
Minimum Humidity 52    
Precipitation  
Precipitation 0.01 in - - ()
Sea Level Pressure  
Sea Level Pressure 29.48 in    
Wind  
Wind Speed 15 mph (West)    
Max Wind Speed 30 mph    
Max Gust Speed 45 mph    
Visibility 9 miles    
Events      
Averages and records for this station are not official NWS values.
T = Trace of Precipitation, MM = Missing Value Source: NWS Daily Summary

Daily Weather History Graph

Daily Weather History Graph

Search for Another Location

Airport or City:

Astronomy

Oct. 22, 2019 Rise Set
Actual Time 7:33 AM CDT 6:14 PM CDT
Civil Twilight 7:03 AM CDT 6:44 PM CDT
Nautical Twilight 6:30 AM CDT 7:17 PM CDT
Astronomical Twilight 5:56 AM CDT 7:51 PM CDT
Moon 12:25 AM CDT (10/22) 3:40 PM CDT (10/22)
Length of Visible Light 11h 40m
Length of Day
10h 41m
Last Quarter, 37% of the Moon is Illuminated
Oct 22
Last Quarter
Oct 27
New
Nov 4
First Quarter
Nov 12
Full
Nov 19
Last Quarter

Hourly Weather History & Observations

Time (CDT) Temp. Windchill Dew Point Humidity Pressure Visibility Wind Dir Wind Speed Gust Speed Precip Events Conditions
12:15 AM 41.0 °F 39.0 °F 41.2 °F 100% 29.15 in 3.0 mi South 3.5 mph - N/A   Overcast
12:16 AM 41.2 °F 39.2 °F 41.4 °F 100% 29.15 in 3.0 mi South 3.5 mph - N/A   Overcast
12:35 AM - - - N/A% 29.15 in 5.0 mi SSW 3.5 mph - N/A   Overcast
12:55 AM 42.3 °F 40.5 °F 42.4 °F 100% 29.16 in 4.0 mi West 3.5 mph - N/A   Overcast
1:15 AM 42.4 °F 39.6 °F 42.6 °F 100% 29.16 in 5.0 mi West 4.6 mph - N/A   Overcast
1:16 AM 42.4 °F 40.7 °F 42.4 °F 100% 29.16 in 5.0 mi West 3.5 mph - N/A   Overcast
1:35 AM 42.3 °F 38.6 °F 42.4 °F 100% 29.17 in 3.0 mi WNW 5.8 mph - N/A   Overcast
1:55 AM 42.8 °F 38.6 °F 43.0 °F 100% 29.19 in 2.5 mi WNW 6.9 mph - N/A   Overcast
2:15 AM 42.8 °F 38.6 °F 42.8 °F 100% 29.19 in 1.8 mi WNW 6.9 mph - N/A   Overcast
2:35 AM 43.0 °F 39.5 °F 43.2 °F 100% 29.21 in 4.0 mi West 5.8 mph - N/A   Overcast
2:36 AM 43.2 °F 38.4 °F 43.3 °F 100% 29.21 in 4.0 mi West 8.1 mph - N/A   Overcast
2:55 AM 42.8 °F 35.1 °F 42.8 °F 100% 29.21 in 3.0 mi West 16.1 mph 25.3 mph 0.01 in   Overcast
3:15 AM 42.1 °F 33.9 °F 42.3 °F 100% 29.23 in 5.0 mi West 17.3 mph 31.1 mph N/A   Overcast
3:35 AM 41.9 °F 33.4 °F 41.9 °F 100% 29.25 in 2.5 mi West 18.4 mph 31.1 mph N/A   Overcast
3:36 AM 41.9 °F 33.7 °F 41.9 °F 100% 29.25 in 2.5 mi West 17.3 mph 31.1 mph N/A   Overcast
3:55 AM 41.4 °F 34.3 °F 41.5 °F 100% 29.26 in 7.0 mi West 12.7 mph 31.1 mph N/A   Overcast
3:56 AM 41.4 °F 34.3 °F 41.5 °F 100% 29.26 in 7.0 mi West 12.7 mph 31.1 mph N/A   Overcast
4:15 AM 41.2 °F 32.4 °F 41.2 °F 100% 29.28 in 5.0 mi WNW 18.4 mph 27.6 mph N/A   Overcast
4:35 AM 41.0 °F 31.6 °F 40.3 °F 97% 29.29 in 10.0 mi West 20.7 mph 28.8 mph N/A   Overcast
4:55 AM 40.8 °F 33.3 °F 39.6 °F 95% 29.31 in 10.0 mi WNW 13.8 mph 27.6 mph N/A   Overcast
4:56 AM 41.0 °F 34.3 °F 39.7 °F 95% 29.31 in 10.0 mi West 11.5 mph 27.6 mph N/A   Overcast
5:15 AM 41.4 °F 33.6 °F 41.0 °F 99% 29.32 in 4.0 mi West 15.0 mph 24.2 mph N/A   Overcast
5:16 AM 41.4 °F 33.0 °F 41.0 °F 99% 29.32 in 4.0 mi West 17.3 mph 25.3 mph N/A   Overcast
5:35 AM 41.7 °F 33.1 °F 41.2 °F 98% 29.33 in 5.0 mi West 18.4 mph 28.8 mph N/A   Overcast
5:55 AM 41.5 °F 33.2 °F 40.8 °F 97% 29.34 in 7.0 mi West 17.3 mph 32.2 mph N/A   Overcast
6:15 AM 41.5 °F 32.1 °F 40.1 °F 95% 29.35 in 10.0 mi West 21.9 mph 33.4 mph N/A   Overcast
6:16 AM 41.5 °F 31.4 °F 40.1 °F 95% 29.34 in 10.0 mi West 25.3 mph 36.8 mph N/A   Overcast
6:35 AM 41.4 °F 32.7 °F 39.4 °F 93% 29.35 in 10.0 mi West 18.4 mph 32.2 mph N/A   Overcast
6:36 AM 41.4 °F 31.9 °F 39.4 °F 93% 29.36 in 10.0 mi West 21.9 mph 32.2 mph N/A   Overcast
6:55 AM 41.5 °F 31.9 °F 39.0 °F 91% 29.36 in 10.0 mi West 23.0 mph 36.8 mph N/A   Overcast
7:35 AM 41.0 °F 30.7 °F 38.5 °F 91% 29.38 in 10.0 mi West 25.3 mph 39.1 mph N/A   Overcast
7:36 AM 41.0 °F 30.9 °F 38.3 °F 90% 29.38 in 10.0 mi West 24.2 mph 39.1 mph N/A   Overcast
7:55 AM 40.6 °F 30.2 °F 38.3 °F 91% 29.39 in 10.0 mi West 25.3 mph 36.8 mph N/A   Overcast
7:56 AM 40.5 °F 30.7 °F 38.3 °F 92% 29.39 in 10.0 mi West 21.9 mph 34.5 mph N/A   Overcast
8:15 AM 40.3 °F 30.2 °F 38.1 °F 92% 29.40 in 7.0 mi West 23.0 mph 39.1 mph N/A   Overcast
8:35 AM 40.1 °F 29.9 °F 37.4 °F 90% 29.42 in 10.0 mi West 23.0 mph 38.0 mph N/A   Overcast
8:55 AM 40.1 °F 29.0 °F 37.4 °F 90% 29.42 in 10.0 mi West 27.6 mph 38.0 mph N/A   Overcast
8:56 AM 40.1 °F 29.5 °F 37.4 °F 90% 29.42 in 10.0 mi West 25.3 mph 38.0 mph N/A   Overcast
9:15 AM 40.1 °F 29.9 °F 37.4 °F 90% 29.44 in 10.0 mi West 23.0 mph 40.3 mph N/A   Overcast
9:16 AM 40.1 °F 30.2 °F 37.4 °F 90% 29.44 in 10.0 mi West 21.9 mph 40.3 mph N/A   Overcast
9:35 AM 39.9 °F 31.8 °F 37.2 °F 90% 29.45 in 10.0 mi WSW 15.0 mph 39.1 mph N/A   Overcast
9:36 AM 39.9 °F 31.1 °F 37.2 °F 90% 29.46 in 10.0 mi West 17.3 mph 39.1 mph N/A   Overcast
9:55 AM 39.7 °F 29.2 °F 36.9 °F 89% 29.45 in 10.0 mi West 24.2 mph 39.1 mph N/A   Overcast
10:15 AM 40.1 °F 29.9 °F 37.0 °F 89% 29.47 in 10.0 mi West 23.0 mph 33.4 mph N/A   Overcast
10:35 AM 39.7 °F 28.1 °F 36.7 °F 89% 29.46 in 10.0 mi West 29.9 mph 44.9 mph N/A   Overcast
10:36 AM 39.7 °F 28.3 °F 36.7 °F 89% 29.46 in 10.0 mi West 28.8 mph 44.9 mph N/A   Overcast
10:55 AM 40.1 °F 30.2 °F 36.5 °F 87% 29.48 in 10.0 mi WSW 21.9 mph 35.7 mph N/A   Overcast
10:56 AM 40.1 °F 31.0 °F 36.5 °F 87% 29.48 in 10.0 mi West 18.4 mph 35.7 mph N/A   Overcast
11:15 AM 39.7 °F 30.0 °F 36.0 °F 86% 29.50 in 10.0 mi WSW 20.7 mph 43.7 mph N/A   Overcast
11:35 AM 39.7 °F 29.7 °F 35.8 °F 86% 29.50 in 10.0 mi West 21.9 mph 40.3 mph N/A   Overcast
11:55 AM 40.3 °F 30.2 °F 36.0 °F 85% 29.51 in 10.0 mi West 23.0 mph 34.5 mph N/A   Overcast
11:56 AM 40.3 °F 30.7 °F 36.0 °F 85% 29.51 in 10.0 mi West 20.7 mph 34.5 mph N/A   Overcast
12:15 PM 40.1 °F 29.5 °F 35.6 °F 84% 29.50 in 10.0 mi West 25.3 mph 43.7 mph N/A   Overcast
12:16 PM 40.3 °F 30.2 °F 35.6 °F 83% 29.51 in 10.0 mi West 23.0 mph 43.7 mph N/A   Overcast
12:35 PM 40.6 °F 30.4 °F 35.6 °F 82% 29.51 in 10.0 mi WSW 24.2 mph 34.5 mph N/A   Overcast
1:16 PM 40.6 °F 30.9 °F 35.1 °F 80% 29.53 in 10.0 mi West 21.9 mph 33.4 mph N/A   Overcast
1:35 PM 41.0 °F 31.9 °F 34.9 °F 79% 29.53 in 10.0 mi West 19.6 mph 34.5 mph N/A   Overcast
1:55 PM 41.0 °F 30.7 °F 34.7 °F 78% 29.52 in 10.0 mi West 25.3 mph 39.1 mph N/A   Overcast
2:15 PM 41.9 °F 31.9 °F 34.9 °F 76% 29.54 in 10.0 mi West 25.3 mph 39.1 mph N/A   Overcast
2:35 PM 43.0 °F 33.5 °F 34.9 °F 73% 29.54 in 10.0 mi West 24.2 mph 32.2 mph N/A   Overcast
2:36 PM 43.0 °F 33.8 °F 34.9 °F 73% 29.54 in 10.0 mi West 23.0 mph 32.2 mph N/A   Overcast
2:55 PM 43.2 °F 35.9 °F 34.7 °F 72% 29.56 in 10.0 mi West 15.0 mph 33.4 mph N/A   Overcast
3:15 PM 44.1 °F 35.2 °F 34.5 °F 69% 29.56 in 10.0 mi West 23.0 mph 38.0 mph N/A   Overcast
3:35 PM 44.2 °F 35.2 °F 34.2 °F 68% 29.57 in 10.0 mi West 24.2 mph 38.0 mph N/A   Overcast
3:36 PM 44.2 °F 35.0 °F 34.2 °F 68% 29.57 in 10.0 mi West 25.3 mph 38.0 mph N/A   Overcast
3:55 PM 44.6 °F 35.7 °F 33.8 °F 66% 29.58 in 10.0 mi West 24.2 mph 40.3 mph N/A   Overcast
3:56 PM 44.6 °F 35.5 °F 33.8 °F 66% 29.58 in 10.0 mi West 25.3 mph 40.3 mph N/A   Overcast
4:15 PM 45.5 °F 38.1 °F 34.0 °F 64% 29.60 in 10.0 mi West 18.4 mph 34.5 mph N/A   Overcast
4:16 PM 45.5 °F 37.6 °F 34.0 °F 64% 29.59 in 10.0 mi West 20.7 mph 34.5 mph N/A   Overcast
4:35 PM 45.1 °F 36.6 °F 34.2 °F 65% 29.60 in 7.0 mi West 23.0 mph 35.7 mph N/A   Overcast
4:55 PM 45.3 °F 38.4 °F 33.8 °F 64% 29.61 in 10.0 mi West 16.1 mph 35.7 mph N/A   Overcast
5:15 PM 45.5 °F 37.1 °F 33.8 °F 64% 29.62 in 10.0 mi West 23.0 mph 36.8 mph N/A   Overcast
5:16 PM 45.5 °F 37.6 °F 33.8 °F 64% 29.62 in 10.0 mi West 20.7 mph 36.8 mph N/A   Overcast
5:35 PM 45.7 °F 37.4 °F 32.9 °F 61% 29.63 in 10.0 mi West 23.0 mph 38.0 mph N/A   Overcast
5:55 PM 45.5 °F 38.6 °F 32.4 °F 60% 29.64 in 10.0 mi West 16.1 mph 27.6 mph N/A   Overcast
6:15 PM 45.7 °F 38.8 °F 32.0 °F 59% 29.65 in 10.0 mi West 16.1 mph 25.3 mph N/A   Overcast
6:16 PM 45.7 °F 38.8 °F 32.0 °F 59% 29.65 in 10.0 mi West 16.1 mph 25.3 mph N/A   Overcast
6:36 PM 45.7 °F 36.9 °F 30.9 °F 56% 29.65 in 10.0 mi West 25.3 mph 35.7 mph N/A   Overcast
6:55 PM 45.7 °F 38.6 °F 30.6 °F 56% 29.66 in 10.0 mi West 17.3 mph 33.4 mph N/A   Overcast
7:15 PM 45.5 °F 37.8 °F 30.2 °F 55% 29.67 in 10.0 mi West 19.6 mph 29.9 mph N/A   Overcast
7:35 PM 45.5 °F 38.6 °F 29.7 °F 54% 29.68 in 10.0 mi West 16.1 mph 25.3 mph N/A   Overcast
7:36 PM 45.5 °F 38.9 °F 29.7 °F 54% 29.68 in 10.0 mi West 15.0 mph 25.3 mph N/A   Overcast
7:55 PM 45.1 °F 38.4 °F 29.7 °F 55% 29.67 in 10.0 mi West 15.0 mph 32.2 mph N/A   Overcast
7:56 PM 45.1 °F 38.8 °F 29.7 °F 55% 29.68 in 10.0 mi West 13.8 mph 32.2 mph N/A   Overcast
8:15 PM 45.0 °F 37.9 °F 29.3 °F 54% 29.68 in 10.0 mi WSW 16.1 mph 29.9 mph N/A   Overcast
8:35 PM 44.8 °F 37.4 °F 28.4 °F 53% 29.68 in 10.0 mi West 17.3 mph 34.5 mph N/A   Overcast
8:55 PM 44.8 °F 36.9 °F 28.2 °F 52% 29.69 in 10.0 mi West 19.6 mph 31.1 mph N/A   Overcast
8:56 PM 44.8 °F 36.6 °F 28.2 °F 52% 29.69 in 10.0 mi West 20.7 mph 32.2 mph N/A   Overcast
9:15 PM 44.6 °F 38.1 °F 28.4 °F 53% 29.70 in 10.0 mi WSW 13.8 mph 27.6 mph N/A   Overcast
9:16 PM 44.6 °F 38.1 °F 28.4 °F 53% 29.70 in 10.0 mi WSW 13.8 mph 27.6 mph N/A   Overcast
9:35 PM 44.2 °F 37.3 °F 29.3 °F 56% 29.70 in 10.0 mi WSW 15.0 mph 27.6 mph N/A   Overcast
9:55 PM 44.1 °F 36.2 °F 29.7 °F 57% 29.70 in 10.0 mi West 18.4 mph 26.5 mph N/A   Overcast
10:15 PM 43.7 °F 36.3 °F 29.1 °F 57% 29.71 in 10.0 mi West 16.1 mph 26.5 mph N/A   Overcast
10:16 PM 43.7 °F 36.6 °F 29.1 °F 57% 29.71 in 10.0 mi West 15.0 mph 26.5 mph N/A   Overcast
10:36 PM 43.7 °F 36.0 °F 28.6 °F 55% 29.71 in 10.0 mi West 17.3 mph 33.4 mph N/A   Overcast
10:55 PM 43.3 °F 36.1 °F 28.9 °F 57% 29.71 in 10.0 mi West 15.0 mph 27.6 mph N/A   Overcast
11:15 PM 42.8 °F 35.1 °F 29.1 °F 58% 29.71 in 10.0 mi West 16.1 mph 28.8 mph N/A   Overcast
11:35 PM 42.4 °F 35.7 °F 29.3 °F 60% 29.72 in 10.0 mi West 12.7 mph 27.6 mph N/A   Overcast
11:36 PM 42.4 °F 35.3 °F 29.3 °F 60% 29.72 in 10.0 mi WSW 13.8 mph 27.6 mph N/A   Overcast
11:55 PM 41.9 °F 33.7 °F 29.3 °F 61% 29.72 in 10.0 mi West 17.3 mph 28.8 mph N/A   Overcast
11:56 PM 41.9 °F 33.7 °F 29.3 °F 61% 29.72 in 10.0 mi West 17.3 mph 26.5 mph N/A   Overcast